Home > Time Zones > World Clock > Weather > Iran > Tabriz > Past weeks

Flag for Iran Weather past 2 weeks in Tabriz, Iran

Now
95 °F

Sunny.


Feels Like: 93 °F
Forecast: 75 / 101 °F
Wind: 5 mph from South

Location: Tabriz Airport

Current Time: Jul 25, 2014 at 2:35:07 PM

Latest Report: Jul 25, 2014 at 2:00 PM


Visibility: 10 mi

Pressure: 29.83 "Hg

Humidity: 25%

Dew point: 54 °F

Location of TabrizLocation

Historic Weather in Tabriz — Graph

°F

Tabriz temperature yesterday

Maximum temperature yesterday: 93 °F (at 4:00 PM)
Minimum temperature yesterday: 68 °F (at 6:30 AM)
Average temperature yesterday: 82 °F

Past Weeks' High & Low Weather Summary

 TemperatureHumidityPressure
High102 °F (Jul 17, 3:30 PM)56% (Jul 15, 6:30 AM)30.04 "Hg (Jul 15, 6:30 AM)
Low66 °F (Jul 22, 5:30 AM)7% (Jul 19, 7:30 PM)29.71 "Hg (Jul 20, 5:30 PM)
Average85 °F28%29.89 "Hg
* Reported Jul 10 1:30 PM — Jul 25 1:30 PM, Tabriz, Weather by CustomWeather, © 2014

Note: Actual official high and low records may vary slightly from our data, if they occured in-between our weather recording intervals... More about our weather records

Advertising

Tabriz weather history for previous 24 hours

 ConditionsComfort  
Time TempWeatherWind HumidityBarometerVisibility
1:30 PM
Jul 25
93 °FSunny.12 mph26%29.83 "Hg10 mi
1:00 PM93 °FSunny.12 mph24%29.86 "Hg10 mi
12:30 PM93 °FSunny.7 mph24%29.86 "Hg10 mi
12:00 PM91 °FSunny.12 mph26%29.86 "Hg10 mi
11:30 AM90 °FSunny.12 mph27%29.86 "Hg10 mi
11:00 AM88 °FSunny.14 mph29%29.86 "Hg10 mi
10:30 AM84 °FSunny.12 mph33%29.86 "Hg10 mi
10:00 AM82 °FSunny.12 mph35%29.89 "Hg10 mi
9:30 AM82 °FSunny.14 mph35%29.89 "Hg10 mi
9:00 AM81 °FSunny.9 mph37%29.89 "Hg10 mi
8:30 AM79 °FSunny.5 mph39%29.89 "Hg10 mi
8:00 AM77 °FSunny.12 mph39%29.89 "Hg10 mi
7:30 AM75 °FClear.7 mph41%29.89 "Hg10 mi
6:20 AM73 °FClear.12 mph41%29.86 "Hg10 mi
5:30 AM75 °FClear.14 mph39%29.86 "Hg10 mi
4:30 AM75 °FClear.9 mph39%29.86 "Hg10 mi
3:30 AM77 °FClear.12 mph36%29.86 "Hg10 mi
2:30 AM77 °FClear.14 mph36%29.89 "Hg10 mi
1:30 AM77 °FClear.7 mph36%29.89 "Hg10 mi
12:30 AM79 °FClear.12 mph34%29.89 "Hg10 mi
11:30 PM
Jul 24
81 °FClear.9 mph30%29.89 "Hg10 mi
10:30 PM81 °FClear.7 mph30%29.89 "Hg10 mi
9:30 PM84 °FSunny.12 mph27%29.86 "Hg10 mi
8:30 PM88 °FSunny.14 mph24%29.86 "Hg10 mi
7:30 PM93 °FSunny.12 mph17%29.86 "Hg10 mi
7:00 PM91 °FSunny.16 mph21%29.86 "Hg10 mi
6:30 PM93 °FSunny.12 mph21%29.86 "Hg10 mi
6:00 PM93 °FSunny.7 mph20%29.86 "Hg10 mi
5:30 PM93 °FSunny.7 mph20%29.86 "Hg10 mi
5:00 PM93 °FSunny.14 mph20%29.86 "Hg10 mi
4:30 PM93 °FSunny.12 mph19%29.86 "Hg10 mi
4:00 PM93 °FSunny.9 mph23%29.86 "Hg10 mi
3:30 PM91 °FSunny.5 mph23%29.89 "Hg10 mi
3:00 PM91 °FSunny.9 mph21%29.89 "Hg10 mi
2:30 PM90 °FSunny.12 mph22%29.92 "Hg10 mi
2:00 PM90 °FSunny.9 mph22%29.92 "Hg10 mi
Weather by CustomWeather, © 2014

See weather overviewHow to use our weather pages